Location: Club d'Astronomie Sirius du Saguenay
(48.5448°N, 71.1471°W)
Time: 10:47:17
(UTC-05:00)

Envisat - Visible Passes

Search period start: 18 January 2018 00:00
Search period end: 28 January 2018 00:00
Orbit: 764 x 766 km, 98.2° (Epoch: 18 January)

Date Brightness Start Highest point End Pass type
(mag) Time Alt. Az. Time Alt. Az. Time Alt. Az.
18 Jan 3.7 18:23:10 33° NE 18:23:10 33° NE 18:27:02 10° N visible
18 Jan 4.8 20:03:22 27° NW 20:03:22 27° NW 20:06:08 10° NNW visible
19 Jan 4.3 17:45:47 19° ENE 17:46:06 19° ENE 17:49:35 10° NNE visible
19 Jan 3.7 19:25:58 48° NNW 19:25:58 48° NNW 19:29:41 10° NNW visible
20 Jan 4.8 17:09:28 10° NE 17:09:56 10° NE 17:10:24 10° NE visible
20 Jan 3.2 18:48:34 52° NE 18:48:34 52° NE 18:52:52 10° N visible
20 Jan 5.4 20:28:45 19° WNW 20:28:45 19° WNW 20:31:12 10° NW visible
21 Jan 5.9 06:49:26 10° NE 06:52:11 14° E 06:54:55 10° ESE visible
21 Jan 3.8 18:11:10 29° ENE 18:11:24 29° ENE 18:15:45 10° N visible
21 Jan 4.2 19:51:21 38° WNW 19:51:21 38° WNW 19:55:08 10° NNW visible
22 Jan 4.5 17:33:45 14° ENE 17:35:07 16° NE 17:38:06 10° NNE visible
22 Jan 3.0 19:13:56 74° NNW 19:13:56 74° NNW 19:18:34 10° NNW visible
22 Jan 5.8 20:54:07 13° WNW 20:54:07 13° WNW 20:55:35 10° WNW visible
23 Jan 3.2 18:36:31 45° ENE 18:36:49 46° ENE 18:41:40 10° N visible
23 Jan 4.9 20:16:42 26° W 20:16:42 26° W 20:20:20 10° NW visible
24 Jan 6.2 06:39:14 10° ENE 06:40:53 11° E 06:42:32 10° ESE visible
24 Jan 4.0 17:59:05 22° E 18:00:23 24° ENE 18:04:25 10° N visible
24 Jan 3.6 19:39:16 54° W 19:39:16 54° W 19:44:05 10° NNW visible
25 Jan 4.7 17:21:48 10° E 17:24:08 13° NE 17:26:29 10° NNE visible
25 Jan 2.8 19:01:50 68° ESE 19:02:19 75° ENE 19:07:24 10° N visible
25 Jan 5.5 20:42:01 16° W 20:42:01 16° W 20:45:06 10° NW visible
26 Jan 3.4 18:24:23 32° E 18:25:45 38° ENE 18:30:25 10° N visible
26 Jan 4.5 20:04:34 33° W 20:04:48 33° W 20:09:24 10° NNW visible
27 Jan 4.2 17:46:56 15° E 17:49:22 20° ENE 17:53:02 10° NNE visible
27 Jan 3.2 19:27:07 58° SSW 19:27:54 68° WSW 19:33:00 10° NNW visible
